| time (UTC) | temp F | wind direction | speed MPH | gust MPH | rain 1hr in | rain 24hr in | rain mn in | humidity % | barometer mb |
| 20260901105935 | 82 | 165 | 0.0 | 1.0 | 0.00 | 0.00 | 0.00 | 68 | 1016.0 |
| 20260901105436 | 82 | 178 | 0.0 | 2.0 | 0.00 | 0.00 | 0.00 | 68 | 1016.0 |
| 20260901104933 | 82 | 186 | 1.0 | 3.0 | 0.00 | 0.00 | 0.00 | 68 | 1016.0 |
| 20260901104727 | 82 | 156 | 1.0 | 3.0 | 0.00 | 0.00 | 0.00 | 68 | 1016.0 |
| 20260901104028 | 83 | 141 | 1.0 | 4.0 | 0.00 | 0.00 | 0.00 | 67 | 1016.0 |
| 20260901104004 | 83 | 199 | 1.0 | 4.0 | 0.00 | 0.00 | 0.00 | 67 | 1016.2 |
| 20260901102929 | 83 | 142 | 1.0 | 4.0 | 0.00 | 0.00 | 0.00 | 67 | 1016.0 |
| 20260901102428 | 83 | 130 | 2.0 | 6.0 | 0.00 | 0.00 | 0.00 | 66 | 1016.3 |
| 20260901101927 | 83 | 130 | 1.0 | 6.0 | 0.00 | 0.00 | 0.00 | 66 | 1016.2 |
| 20260901101426 | 83 | 150 | 1.0 | 2.0 | 0.00 | 0.00 | 0.00 | 66 | 1016.2 |
| 20260901100925 | 83 | 119 | 1.0 | 4.0 | 0.00 | 0.00 | 0.00 | 65 | 1015.8 |
| 20260901100426 | 83 | 174 | 1.0 | 4.0 | 0.00 | 0.00 | 0.00 | 65 | 1015.9 |
| 20260901095926 | 83 | 165 | 0.0 | 2.0 | 0.00 | 0.00 | 0.00 | 65 | 1016.0 |
| 20260901095719 | 84 | 150 | 1.0 | 3.0 | 0.00 | 0.00 | 0.00 | 64 | 1016.0 |
| 20260901094925 | 84 | 149 | 1.0 | 4.0 | 0.00 | 0.00 | 0.00 | 64 | 1016.0 |
| 20260901094439 | 84 | 198 | 2.0 | 6.0 | 0.00 | 0.00 | 0.00 | 64 | 1015.9 |
| 20260901093925 | 84 | 142 | 2.0 | 6.0 | 0.00 | 0.00 | 0.00 | 63 | 1016.0 |
| 20260901093425 | 84 | 180 | 2.0 | 6.0 | 0.00 | 0.00 | 0.00 | 63 | 1016.0 |
| 20260901092925 | 84 | 170 | 2.0 | 6.0 | 0.00 | 0.00 | 0.00 | 63 | 1016.0 |
| 20260901092517 | 85 | 187 | 2.0 | 6.0 | 0.00 | 0.00 | 0.00 | 62 | 1015.8 |
| 20260901092458 | 84 | 202 | 2.0 | 6.0 | 0.00 | 0.00 | 0.00 | 62 | 1015.9 |
| 20260901091708 | 85 | 186 | 2.0 | 6.0 | 0.00 | 0.00 | 0.00 | 62 | 1015.9 |
| 20260901090921 | 85 | 184 | 2.0 | 9.0 | 0.00 | 0.00 | 0.00 | 61 | 1016.0 |
| 20260901090421 | 85 | 181 | 2.0 | 9.0 | 0.00 | 0.00 | 0.00 | 61 | 1016.0 |
| 20260901085920 | 85 | 196 | 2.0 | 6.0 | 0.00 | 0.00 | 0.00 | 61 | 1016.0 |
| 20260901085711 | 85 | 198 | 2.0 | 7.0 | 0.00 | 0.00 | 0.00 | 61 | 1016.2 |
| 20260901085209 | 85 | 197 | 2.0 | 8.0 | 0.00 | 0.00 | 0.00 | 61 | 1015.9 |
| 20260901084715 | 85 | 176 | 3.0 | 8.0 | 0.00 | 0.00 | 0.00 | 60 | 1016.0 |
| 20260901083919 | 85 | 198 | 2.0 | 8.0 | 0.00 | 0.00 | 0.00 | 60 | 1015.9 |
| 20260901083420 | 85 | 198 | 2.0 | 6.0 | 0.00 | 0.00 | 0.00 | 60 | 1015.9 |
| 20260901082919 | 85 | 177 | 2.0 | 6.0 | 0.00 | 0.00 | 0.00 | 59 | 1016.0 |
| 20260901082417 | 85 | 150 | 2.0 | 6.0 | 0.00 | 0.00 | 0.00 | 59 | 1015.8 |
| 20260901082210 | 85 | 137 | 2.0 | 6.0 | 0.00 | 0.00 | 0.00 | 59 | 1015.8 |
| 20260901081414 | 85 | 151 | 2.0 | 6.0 | 0.00 | 0.00 | 0.00 | 58 | 1015.7 |
| 20260901080915 | 85 | 136 | 2.0 | 5.0 | 0.00 | 0.00 | 0.00 | 58 | 1015.8 |
| 20260901080417 | 85 | 137 | 2.0 | 7.0 | 0.00 | 0.00 | 0.00 | 58 | 1015.7 |
| 20260901075916 | 86 | 215 | 2.0 | 7.0 | 0.00 | 0.00 | 0.00 | 58 | 1015.7 |
| 20260901075415 | 86 | 109 | 2.0 | 4.0 | 0.00 | 0.00 | 0.00 | 57 | 1015.6 |
| 20260901074915 | 86 | 148 | 1.0 | 4.0 | 0.00 | 0.00 | 0.00 | 57 | 1015.6 |
| 20260901074415 | 86 | 193 | 1.0 | 6.0 | 0.00 | 0.00 | 0.00 | 57 | 1015.7 |
| 20260901073916 | 86 | 157 | 2.0 | 6.0 | 0.00 | 0.00 | 0.00 | 56 | 1015.6 |
| 20260901073415 | 86 | 126 | 2.0 | 5.0 | 0.00 | 0.00 | 0.00 | 56 | 1015.6 |
| 20260901072915 | 86 | 175 | 2.0 | 5.0 | 0.00 | 0.00 | 0.00 | 56 | 1015.6 |
| 20260901072415 | 86 | 159 | 2.0 | 5.0 | 0.00 | 0.00 | 0.00 | 56 | 1015.6 |
| 20260901071915 | 87 | 169 | 2.0 | 4.0 | 0.00 | 0.00 | 0.00 | 55 | 1015.7 |
| 20260901071415 | 87 | 144 | 2.0 | 4.0 | 0.00 | 0.00 | 0.00 | 55 | 1015.8 |
| 20260901070915 | 87 | 119 | 2.0 | 4.0 | 0.00 | 0.00 | 0.00 | 55 | 1015.7 |
| 20260901070710 | 87 | 129 | 1.0 | 4.0 | 0.00 | 0.00 | 0.00 | 55 | 1015.8 |
| 20260901065919 | 87 | 111 | 1.0 | 4.0 | 0.00 | 0.00 | 0.00 | 55 | 1015.7 |
| 20260901065704 | 87 | 132 | 2.0 | 8.0 | 0.00 | 0.00 | 0.00 | 55 | 1015.6 |
| 20260901064915 | 87 | 157 | 2.0 | 8.0 | 0.00 | 0.00 | 0.00 | 54 | 1015.5 |
| 20260901064415 | 87 | 146 | 1.0 | 5.0 | 0.00 | 0.00 | 0.00 | 54 | 1015.5 |
| 20260901063915 | 87 | 205 | 2.0 | 6.0 | 0.00 | 0.00 | 0.00 | 54 | 1015.5 |
| 20260901063416 | 87 | 112 | 2.0 | 6.0 | 0.00 | 0.00 | 0.00 | 54 | 1015.5 |
| 20260901062916 | 87 | 163 | 2.0 | 5.0 | 0.00 | 0.00 | 0.00 | 54 | 1015.5 |
| 20260901061739 | 87 | 146 | 2.0 | 4.0 | 0.00 | 0.00 | 0.00 | 53 | 1015.4 |
| 20260901061308 | 87 | 128 | 2.0 | 4.0 | 0.00 | 0.00 | 0.00 | 52 | 1015.5 |
| 20260901060513 | 87 | 89 | 2.0 | 8.0 | 0.00 | 0.00 | 0.00 | 52 | 1015.4 |
| 20260901060013 | 87 | 125 | 2.0 | 8.0 | 0.00 | 0.00 | 0.00 | 52 | 1015.3 |
| 20260901055513 | 87 | 151 | 2.0 | 7.0 | 0.00 | 0.00 | 0.00 | 52 | 1015.2 |
| 20260901055012 | 87 | 92 | 2.0 | 7.0 | 0.00 | 0.00 | 0.00 | 52 | 1015.2 |
| 20260901054804 | 87 | 111 | 2.0 | 7.0 | 0.00 | 0.00 | 0.00 | 52 | 1015.1 |
| 20260901054011 | 87 | 108 | 1.0 | 4.0 | 0.00 | 0.00 | 0.00 | 52 | 1015.1 |
| 20260901053511 | 86 | 141 | 1.0 | 4.0 | 0.00 | 0.00 | 0.00 | 52 | 1015.1 |
| 20260901053012 | 86 | 159 | 1.0 | 4.0 | 0.00 | 0.00 | 0.00 | 52 | 1015.0 |
| 20260901052512 | 86 | 107 | 1.0 | 4.0 | 0.00 | 0.00 | 0.00 | 53 | 1014.9 |
| 20260901052011 | 86 | 105 | 1.0 | 4.0 | 0.00 | 0.00 | 0.00 | 53 | 1014.9 |
| 20260901051513 | 86 | 65 | 1.0 | 7.0 | 0.00 | 0.00 | 0.00 | 53 | 1015.0 |
| 20260901051011 | 86 | 103 | 2.0 | 7.0 | 0.00 | 0.00 | 0.00 | 53 | 1014.9 |
| 20260901050511 | 85 | 150 | 1.0 | 6.0 | 0.00 | 0.00 | 0.00 | 53 | 1015.0 |
| 20260901050021 | 85 | 101 | 0.0 | 2.0 | 0.00 | 0.00 | 0.00 | 52 | 1014.9 |
| 20260901045510 | 86 | 119 | 0.0 | 0.0 | 0.00 | 0.00 | 0.00 | 51 | 1014.7 |
| 20260901045309 | 86 | 116 | 0.0 | 0.0 | 0.00 | 0.00 | 0.00 | 51 | 1014.7 |
| 20260901044508 | 86 | 120 | 0.0 | 0.0 | 0.00 | 0.00 | 0.00 | 51 | 1014.7 |
| 20260901044107 | 86 | 121 | 0.0 | 0.0 | 0.00 | 0.00 | 0.00 | 50 | 1014.5 |
| 20260901043758 | 87 | 121 | 0.0 | 0.0 | 0.00 | 0.00 | 0.00 | 49 | 1014.6 |
| 20260901043007 | 87 | 120 | 0.0 | 0.0 | 0.00 | 0.00 | 0.00 | 49 | 1014.6 |
| 20260901042805 | 87 | 121 | 0.0 | 0.0 | 0.00 | 0.00 | 0.00 | 48 | 1014.5 |
| 20260901042006 | 87 | 121 | 0.0 | 1.0 | 0.00 | 0.00 | 0.00 | 48 | 1014.7 |
| 20260901041505 | 87 | 110 | 0.0 | 1.0 | 0.00 | 0.00 | 0.00 | 47 | 1014.6 |
| 20260901041006 | 88 | 122 | 0.0 | 0.0 | 0.00 | 0.00 | 0.00 | 47 | 1014.6 |
| 20260901040506 | 88 | 113 | 0.0 | 0.0 | 0.00 | 0.00 | 0.00 | 47 | 1014.6 |
| 20260901040011 | 88 | 117 | 0.0 | 0.0 | 0.00 | 0.00 | 0.00 | 46 | 1014.6 |
| 20260901035501 | 88 | 117 | 0.0 | 0.0 | 0.00 | 0.00 | 0.00 | 46 | 1014.6 |
| 20260901034506 | 89 | 148 | 0.0 | 3.0 | 0.00 | 0.00 | 0.00 | 45 | 1014.6 |
| 20260901034006 | 89 | 147 | 0.0 | 1.0 | 0.00 | 0.00 | 0.00 | 45 | 1014.6 |
| 20260901033506 | 89 | 155 | 0.0 | 2.0 | 0.00 | 0.00 | 0.00 | 45 | 1014.6 |
| 20260901033007 | 89 | 155 | 0.0 | 2.0 | 0.00 | 0.00 | 0.00 | 45 | 1014.6 |
| 20260901032508 | 89 | 155 | 0.0 | 2.0 | 0.00 | 0.00 | 0.00 | 44 | 1014.5 |
| 20260901032006 | 89 | 111 | 0.0 | 1.0 | 0.00 | 0.00 | 0.00 | 44 | 1014.6 |
| 20260901031500 | 89 | 133 | 0.0 | 3.0 | 0.00 | 0.00 | 0.00 | 43 | 1014.6 |
| 20260901030958 | 89 | 136 | 0.0 | 3.0 | 0.00 | 0.00 | 0.00 | 43 | 1014.5 |
| 20260901030459 | 89 | 146 | 0.0 | 2.0 | 0.00 | 0.00 | 0.00 | 43 | 1014.5 |
| 20260901025958 | 90 | 133 | 0.0 | 2.0 | 0.00 | 0.00 | 0.00 | 42 | 1014.5 |
| 20260901025458 | 90 | 150 | 1.0 | 2.0 | 0.00 | 0.00 | 0.00 | 42 | 1014.4 |
| 20260901025255 | 90 | 141 | 0.0 | 2.0 | 0.00 | 0.00 | 0.00 | 42 | 1014.3 |
| 20260901024509 | 90 | 142 | 0.0 | 2.0 | 0.00 | 0.00 | 0.00 | 41 | 1014.2 |
| 20260901023956 | 90 | 134 | 0.0 | 2.0 | 0.00 | 0.00 | 0.00 | 41 | 1014.0 |
| 20260901023457 | 91 | 139 | 0.0 | 2.0 | 0.00 | 0.00 | 0.00 | 41 | 1014.0 |
| 20260901022950 | 91 | 130 | 1.0 | 2.0 | 0.00 | 0.00 | 0.00 | 41 | 1014.0 |
| 20260901022450 | 91 | 136 | 1.0 | 4.0 | 0.00 | 0.00 | 0.00 | 40 | 1013.9 |
| 20260901021950 | 91 | 134 | 0.0 | 4.0 | 0.00 | 0.00 | 0.00 | 41 | 1013.8 |
| 20260901021451 | 92 | 110 | 0.0 | 2.0 | 0.00 | 0.00 | 0.00 | 40 | 1013.8 |
| 20260901021245 | 92 | 142 | 0.0 | 1.0 | 0.00 | 0.00 | 0.00 | 40 | 1013.7 |
| 20260901020448 | 92 | 160 | 0.0 | 2.0 | 0.00 | 0.00 | 0.00 | 40 | 1013.7 |
| 20260901015948 | 92 | 159 | 1.0 | 3.0 | 0.00 | 0.00 | 0.00 | 40 | 1013.6 |
| 20260901015446 | 92 | 126 | 0.0 | 3.0 | 0.00 | 0.00 | 0.00 | 40 | 1013.6 |
| 20260901014946 | 93 | 123 | 0.0 | 3.0 | 0.00 | 0.00 | 0.00 | 40 | 1013.6 |
| 20260901014446 | 93 | 161 | 0.0 | 3.0 | 0.00 | 0.00 | 0.00 | 39 | 1013.6 |
| 20260901013946 | 93 | 153 | 0.0 | 3.0 | 0.00 | 0.00 | 0.00 | 39 | 1013.6 |
| 20260901013449 | 93 | 119 | 1.0 | 4.0 | 0.00 | 0.00 | 0.00 | 38 | 1013.5 |
| 20260901012946 | 93 | 165 | 1.0 | 4.0 | 0.00 | 0.00 | 0.00 | 38 | 1013.5 |
| 20260901012446 | 94 | 135 | 1.0 | 3.0 | 0.00 | 0.00 | 0.00 | 38 | 1013.4 |
| 20260901011946 | 94 | 130 | 1.0 | 4.0 | 0.00 | 0.00 | 0.00 | 37 | 1013.4 |
| 20260901011447 | 94 | 141 | 1.0 | 4.0 | 0.00 | 0.00 | 0.00 | 36 | 1013.4 |
| 20260901010947 | 94 | 165 | 1.0 | 3.0 | 0.00 | 0.00 | 0.00 | 36 | 1013.4 |
| 20260901010447 | 95 | 161 | 1.0 | 5.0 | 0.00 | 0.00 | 0.00 | 35 | 1013.3 |
| 20260901005947 | 95 | 135 | 1.0 | 5.0 | 0.00 | 0.00 | 0.00 | 35 | 1013.3 |
| 20260901005443 | 95 | 150 | 1.0 | 5.0 | 0.00 | 0.00 | 0.00 | 34 | 1013.3 |
| 20260901004944 | 96 | 176 | 2.0 | 6.0 | 0.00 | 0.00 | 0.00 | 34 | 1013.4 |
| 20260901004444 | 96 | 130 | 2.0 | 6.0 | 0.00 | 0.00 | 0.00 | 33 | 1013.3 |
| 20260901003943 | 96 | 176 | 2.0 | 7.0 | 0.00 | 0.00 | 0.00 | 33 | 1013.3 |
| 20260901003735 | 96 | 153 | 2.0 | 7.0 | 0.00 | 0.00 | 0.00 | 33 | 1013.4 |
| 20260901002944 | 97 | 183 | 1.0 | 4.0 | 0.00 | 0.00 | 0.00 | 34 | 1013.4 |
| 20260901002440 | 97 | 136 | 1.0 | 4.0 | 0.00 | 0.00 | 0.00 | 33 | 1013.3 |
| 20260901001940 | 97 | 186 | 2.0 | 6.0 | 0.00 | 0.00 | 0.00 | 33 | 1013.3 |
| 20260901001440 | 98 | 136 | 2.0 | 6.0 | 0.00 | 0.00 | 0.00 | 33 | 1013.2 |
| 20260901001237 | 98 | 135 | 2.0 | 5.0 | 0.00 | 0.00 | 0.00 | 32 | 1013.2 |
| 20260901000440 | 99 | 181 | 2.0 | 7.0 | 0.00 | 0.00 | 0.00 | 32 | 1013.3 |
| 20260901000330 | 99 | 182 | 3.0 | 7.0 | 0.00 | 0.00 | 0.00 | 32 | 1013.2 |
| 20260901000321 | 99 | 152 | 2.0 | 7.0 | 0.00 | 0.00 | 0.00 | 31 | 1013.3 |
| 20260831234941 | 100 | 132 | 3.0 | 7.0 | 0.00 | 0.00 | 0.00 | 32 | 1013.3 |
| 20260831234733 | 100 | 200 | 3.0 | 8.0 | 0.00 | 0.00 | 0.00 | 31 | 1013.3 |
| 20260831233939 | 100 | 163 | 3.0 | 8.0 | 0.00 | 0.00 | 0.00 | 31 | 1013.3 |
| 20260831233438 | 100 | 208 | 2.0 | 6.0 | 0.00 | 0.00 | 0.00 | 31 | 1013.3 |
| 20260831232938 | 100 | 172 | 2.0 | 6.0 | 0.00 | 0.00 | 0.00 | 32 | 1013.3 |
| 20260831232437 | 101 | 165 | 2.0 | 6.0 | 0.00 | 0.00 | 0.00 | 31 | 1013.3 |
| 20260831231938 | 101 | 167 | 2.0 | 6.0 | 0.00 | 0.00 | 0.00 | 32 | 1013.3 |
| 20260831231731 | 101 | 140 | 2.0 | 6.0 | 0.00 | 0.00 | 0.00 | 32 | 1013.3 |
| 20260831230939 | 100 | 202 | 2.0 | 9.0 | 0.00 | 0.00 | 0.00 | 32 | 1013.3 |
| 20260831230436 | 100 | 175 | 3.0 | 9.0 | 0.00 | 0.00 | 0.00 | 32 | 1013.4 |
| 20260831225936 | 101 | 172 | 3.0 | 8.0 | 0.00 | 0.00 | 0.00 | 32 | 1013.4 |
| 20260831225436 | 101 | 267 | 3.0 | 8.0 | 0.00 | 0.00 | 0.00 | 31 | 1013.5 |
| 20260831225230 | 101 | 169 | 3.0 | 8.0 | 0.00 | 0.00 | 0.00 | 31 | 1013.4 |
| 20260831224436 | 101 | 134 | 3.0 | 7.0 | 0.00 | 0.00 | 0.00 | 31 | 1013.5 |
| 20260831223935 | 100 | 189 | 3.0 | 10.0 | 0.00 | 0.00 | 0.00 | 31 | 1013.5 |
| 20260831223436 | 100 | 185 | 3.0 | 10.0 | 0.00 | 0.00 | 0.00 | 31 | 1013.5 |
| 20260831222934 | 99 | 136 | 3.0 | 8.0 | 0.00 | 0.00 | 0.00 | 32 | 1013.6 |
| 20260831222434 | 100 | 153 | 3.0 | 8.0 | 0.00 | 0.00 | 0.00 | 31 | 1013.6 |
| 20260831222031 | 100 | 345 | 3.0 | 8.0 | 0.00 | 0.00 | 0.00 | 31 | 1013.7 |
| 20260831222009 | 100 | 126 | 3.0 | 8.0 | 0.00 | 0.00 | 0.00 | 31 | 1013.7 |
| 20260831220933 | 101 | 129 | 3.0 | 11.0 | 0.00 | 0.00 | 0.00 | 31 | 1013.8 |
| 20260831220434 | 102 | 122 | 3.0 | 11.0 | 0.00 | 0.00 | 0.00 | 30 | 1013.7 |
| 20260831215935 | 101 | 194 | 3.0 | 10.0 | 0.00 | 0.00 | 0.00 | 31 | 1013.9 |
| 20260831215434 | 102 | 126 | 4.0 | 10.0 | 0.00 | 0.00 | 0.00 | 32 | 1013.9 |
| 20260831214933 | 101 | 154 | 3.0 | 8.0 | 0.00 | 0.00 | 0.00 | 32 | 1013.9 |
| 20260831214432 | 102 | 92 | 3.0 | 8.0 | 0.00 | 0.00 | 0.00 | 33 | 1014.1 |
| 20260831213930 | 101 | 102 | 3.0 | 8.0 | 0.00 | 0.00 | 0.00 | 33 | 1014.0 |
| 20260831213721 | 101 | 64 | 4.0 | 11.0 | 0.00 | 0.00 | 0.00 | 34 | 1014.1 |
| 20260831212930 | 101 | 13 | 4.0 | 11.0 | 0.00 | 0.00 | 0.00 | 33 | 1014.1 |
| 20260831212433 | 101 | 90 | 3.0 | 9.0 | 0.00 | 0.00 | 0.00 | 34 | 1014.0 |
| 20260831211930 | 101 | 99 | 3.0 | 8.0 | 0.00 | 0.00 | 0.00 | 33 | 1014.2 |
| 20260831211534 | 101 | 176 | 2.0 | 8.0 | 0.00 | 0.00 | 0.00 | 34 | 1014.3 |
| 20260831211506 | 102 | 144 | 3.0 | 8.0 | 0.00 | 0.00 | 0.00 | 32 | 1014.2 |
| 20260831210428 | 100 | 123 | 3.0 | 8.0 | 0.00 | 0.00 | 0.00 | 35 | 1014.3 |
| 20260831210238 | 100 | 355 | 3.0 | 9.0 | 0.00 | 0.00 | 0.00 | 33 | 1014.4 |
| 20260831205427 | 101 | 321 | 3.0 | 10.0 | 0.00 | 0.00 | 0.00 | 33 | 1014.5 |
| 20260831205221 | 101 | 97 | 2.0 | 10.0 | 0.00 | 0.00 | 0.00 | 35 | 1014.5 |
| 20260831204428 | 101 | 125 | 2.0 | 8.0 | 0.00 | 0.00 | 0.00 | 33 | 1014.5 |
| 20260831204220 | 101 | 66 | 3.0 | 10.0 | 0.00 | 0.00 | 0.00 | 33 | 1014.6 |
| 20260831203428 | 101 | 117 | 4.0 | 10.0 | 0.00 | 0.00 | 0.00 | 33 | 1014.8 |
| 20260831202927 | 102 | 159 | 4.0 | 10.0 | 0.00 | 0.00 | 0.00 | 31 | 1014.9 |
| 20260831202427 | 102 | 135 | 4.0 | 10.0 | 0.00 | 0.00 | 0.00 | 32 | 1014.8 |
| 20260831201928 | 101 | 182 | 3.0 | 9.0 | 0.00 | 0.00 | 0.00 | 31 | 1014.8 |
| 20260831201431 | 101 | 178 | 3.0 | 9.0 | 0.00 | 0.00 | 0.00 | 31 | 1014.8 |
| 20260831200928 | 102 | 123 | 3.0 | 9.0 | 0.00 | 0.00 | 0.00 | 31 | 1014.9 |
| 20260831200428 | 101 | 146 | 4.0 | 9.0 | 0.00 | 0.00 | 0.00 | 33 | 1015.0 |
| 20260831195926 | 102 | 178 | 4.0 | 9.0 | 0.00 | 0.00 | 0.00 | 32 | 1015.0 |
| 20260831195425 | 101 | 173 | 3.0 | 12.0 | 0.00 | 0.00 | 0.00 | 33 | 1015.1 |
| 20260831194918 | 101 | 167 | 3.0 | 12.0 | 0.00 | 0.00 | 0.00 | 32 | 1015.2 |
| 20260831194411 | 100 | 167 | 3.0 | 10.0 | 0.00 | 0.00 | 0.00 | 34 | 1015.3 |
| 20260831193908 | 99 | 210 | 3.0 | 8.0 | 0.00 | 0.00 | 0.00 | 35 | 1015.4 |
| 20260831193407 | 98 | 150 | 3.0 | 8.0 | 0.00 | 0.00 | 0.00 | 34 | 1015.5 |
| 20260831192907 | 99 | 142 | 3.0 | 8.0 | 0.00 | 0.00 | 0.00 | 34 | 1015.6 |
| 20260831192409 | 99 | 167 | 3.0 | 8.0 | 0.00 | 0.00 | 0.00 | 36 | 1015.6 |
| 20260831191905 | 97 | 94 | 3.0 | 8.0 | 0.00 | 0.00 | 0.00 | 36 | 1015.6 |
| 20260831191403 | 98 | 144 | 3.0 | 8.0 | 0.00 | 0.00 | 0.00 | 35 | 1015.6 |
| 20260831191201 | 98 | 89 | 3.0 | 8.0 | 0.00 | 0.00 | 0.00 | 35 | 1015.6 |
| 20260831190405 | 98 | 132 | 4.0 | 9.0 | 0.00 | 0.00 | 0.00 | 35 | 1015.8 |
| 20260831190218 | 98 | 100 | 3.0 | 9.0 | 0.00 | 0.00 | 0.00 | 38 | 1015.7 |
| 20260831185404 | 98 | 211 | 3.0 | 11.0 | 0.00 | 0.00 | 0.00 | 35 | 1015.7 |
| 20260831184902 | 99 | 107 | 4.0 | 11.0 | 0.00 | 0.00 | 0.00 | 33 | 1015.8 |
| 20260831184402 | 99 | 160 | 4.0 | 10.0 | 0.00 | 0.00 | 0.00 | 34 | 1015.9 |
| 20260831183902 | 98 | 188 | 4.0 | 10.0 | 0.00 | 0.00 | 0.00 | 37 | 1015.9 |
| 20260831183733 | 99 | 219 | 3.0 | 11.0 | 0.00 | 0.00 | 0.00 | 38 | 1016.2 |
| 20260831183728 | 98 | 146 | 4.0 | 11.0 | 0.00 | 0.00 | 0.00 | 37 | 1016.0 |
| 20260831182356 | 98 | 134 | 3.0 | 7.0 | 0.00 | 0.00 | 0.00 | 38 | 1016.3 |
| 20260831181855 | 98 | 135 | 2.0 | 9.0 | 0.00 | 0.00 | 0.00 | 38 | 1016.4 |
| 20260831181356 | 98 | 173 | 3.0 | 9.0 | 0.00 | 0.00 | 0.00 | 39 | 1016.6 |
| 20260831180856 | 99 | 156 | 3.0 | 8.0 | 0.00 | 0.00 | 0.00 | 39 | 1016.6 |
| 20260831180356 | 99 | 183 | 2.0 | 8.0 | 0.00 | 0.00 | 0.00 | 40 | 1016.7 |
| 20260831175856 | 98 | 109 | 2.0 | 8.0 | 0.00 | 0.00 | 0.00 | 41 | 1016.7 |
| 20260831175649 | 98 | 138 | 3.0 | 10.0 | 0.00 | 0.00 | 0.00 | 40 | 1016.9 |
| 20260831174855 | 98 | 181 | 3.0 | 10.0 | 0.00 | 0.00 | 0.00 | 39 | 1017.0 |
| 20260831174355 | 98 | 119 | 4.0 | 10.0 | 0.00 | 0.00 | 0.00 | 43 | 1017.1 |
| 20260831174148 | 97 | 170 | 4.0 | 8.0 | 0.00 | 0.00 | 0.00 | 41 | 1017.3 |
| 20260831173354 | 98 | 205 | 3.0 | 10.0 | 0.00 | 0.00 | 0.00 | 40 | 1017.2 |
| 20260831172853 | 98 | 178 | 3.0 | 10.0 | 0.00 | 0.00 | 0.00 | 40 | 1017.3 |
| 20260831172351 | 97 | 157 | 3.0 | 9.0 | 0.00 | 0.00 | 0.00 | 42 | 1017.4 |
| 20260831171852 | 97 | 146 | 3.0 | 8.0 | 0.00 | 0.00 | 0.00 | 41 | 1017.3 |
| 20260831171445 | 96 | 150 | 3.0 | 11.0 | 0.00 | 0.00 | 0.00 | 41 | 1017.5 |
| 20260831171425 | 96 | 156 | 3.0 | 8.0 | 0.00 | 0.00 | 0.00 | 42 | 1017.5 |
| 20260831170351 | 96 | 188 | 3.0 | 11.0 | 0.00 | 0.00 | 0.00 | 42 | 1017.6 |
| 20260831165851 | 96 | 122 | 4.0 | 11.0 | 0.00 | 0.00 | 0.00 | 43 | 1017.5 |
| 20260831165349 | 96 | 277 | 4.0 | 9.0 | 0.00 | 0.00 | 0.00 | 42 | 1017.4 |
| 20260831164847 | 96 | 176 | 3.0 | 12.0 | 0.00 | 0.00 | 0.00 | 41 | 1017.4 |
| 20260831164348 | 96 | 205 | 3.0 | 12.0 | 0.00 | 0.00 | 0.00 | 41 | 1017.5 |
| 20260831163848 | 96 | 338 | 4.0 | 10.0 | 0.00 | 0.00 | 0.00 | 41 | 1017.3 |
| 20260831163347 | 96 | 153 | 4.0 | 10.0 | 0.00 | 0.00 | 0.00 | 42 | 1017.4 |
| 20260831162847 | 96 | 269 | 3.0 | 8.0 | 0.00 | 0.00 | 0.00 | 42 | 1017.5 |
| 20260831162350 | 96 | 186 | 4.0 | 9.0 | 0.00 | 0.00 | 0.00 | 44 | 1017.6 |
| 20260831161844 | 95 | 153 | 3.0 | 9.0 | 0.00 | 0.00 | 0.00 | 44 | 1017.5 |
| 20260831161443 | 94 | 159 | 2.0 | 8.0 | 0.00 | 0.00 | 0.00 | 46 | 1017.5 |
| 20260831161421 | 95 | 134 | 2.0 | 8.0 | 0.00 | 0.00 | 0.00 | 45 | 1017.5 |
| 20260831160638 | 94 | 185 | 3.0 | 8.0 | 0.00 | 0.00 | 0.00 | 45 | 1017.6 |
| 20260831155843 | 94 | 196 | 3.0 | 8.0 | 0.00 | 0.00 | 0.00 | 45 | 1017.7 |
| 20260831155342 | 94 | 194 | 3.0 | 10.0 | 0.00 | 0.00 | 0.00 | 45 | 1017.6 |
| 20260831154846 | 94 | 178 | 3.0 | 10.0 | 0.00 | 0.00 | 0.00 | 46 | 1017.6 |
| 20260831154339 | 93 | 144 | 3.0 | 8.0 | 0.00 | 0.00 | 0.00 | 47 | 1017.6 |
| 20260831154137 | 93 | 284 | 3.0 | 9.0 | 0.00 | 0.00 | 0.00 | 47 | 1017.5 |
| 20260831153339 | 93 | 205 | 3.0 | 9.0 | 0.00 | 0.00 | 0.00 | 47 | 1017.3 |
| 20260831152838 | 92 | 183 | 3.0 | 9.0 | 0.00 | 0.00 | 0.00 | 47 | 1017.4 |
| 20260831152339 | 92 | 242 | 3.0 | 9.0 | 0.00 | 0.00 | 0.00 | 48 | 1017.4 |
| 20260831151837 | 92 | 208 | 3.0 | 9.0 | 0.00 | 0.00 | 0.00 | 48 | 1017.3 |
| 20260831151337 | 92 | 144 | 4.0 | 9.0 | 0.00 | 0.00 | 0.00 | 49 | 1017.4 |
| 20260831150833 | 91 | 189 | 4.0 | 9.0 | 0.00 | 0.00 | 0.00 | 50 | 1017.4 |
| 20260831150327 | 91 | 166 | 3.0 | 8.0 | 0.00 | 0.00 | 0.00 | 50 | 1017.3 |
| 20260831145828 | 91 | 152 | 3.0 | 7.0 | 0.00 | 0.00 | 0.00 | 51 | 1017.2 |
| 20260831145327 | 90 | 173 | 3.0 | 8.0 | 0.00 | 0.00 | 0.00 | 52 | 1017.3 |
| 20260831145125 | 90 | 255 | 3.0 | 8.0 | 0.00 | 0.00 | 0.00 | 52 | 1017.2 |
| 20260831144327 | 90 | 187 | 3.0 | 7.0 | 0.00 | 0.00 | 0.00 | 53 | 1017.1 |
| 20260831143826 | 89 | 126 | 3.0 | 7.0 | 0.00 | 0.00 | 0.00 | 55 | 1017.3 |
| 20260831143324 | 89 | 190 | 3.0 | 8.0 | 0.00 | 0.00 | 0.00 | 56 | 1017.2 |
| 20260831142824 | 88 | 200 | 3.0 | 9.0 | 0.00 | 0.00 | 0.00 | 55 | 1017.3 |
| 20260831142321 | 88 | 178 | 3.0 | 9.0 | 0.00 | 0.00 | 0.00 | 57 | 1017.3 |
| 20260831142119 | 88 | 190 | 3.0 | 7.0 | 0.00 | 0.00 | 0.00 | 58 | 1017.3 |
| 20260831141319 | 87 | 187 | 3.0 | 6.0 | 0.00 | 0.00 | 0.00 | 60 | 1017.3 |
| 20260831140819 | 87 | 111 | 3.0 | 8.0 | 0.00 | 0.00 | 0.00 | 61 | 1017.3 |
| 20260831140318 | 87 | 146 | 2.0 | 8.0 | 0.00 | 0.00 | 0.00 | 62 | 1017.3 |
| 20260831135817 | 86 | 195 | 3.0 | 8.0 | 0.00 | 0.00 | 0.00 | 63 | 1017.2 |
| 20260831135313 | 86 | 146 | 4.0 | 9.0 | 0.00 | 0.00 | 0.00 | 64 | 1017.2 |
| 20260831134815 | 85 | 155 | 4.0 | 10.0 | 0.00 | 0.00 | 0.00 | 64 | 1017.3 |
| 20260831134313 | 85 | 213 | 3.0 | 10.0 | 0.00 | 0.00 | 0.00 | 64 | 1017.2 |
| 20260831133814 | 84 | 187 | 3.0 | 10.0 | 0.00 | 0.00 | 0.00 | 65 | 1017.2 |
| 20260831133311 | 83 | 196 | 3.0 | 8.0 | 0.00 | 0.00 | 0.00 | 66 | 1016.9 |
| 20260831132811 | 83 | 225 | 3.0 | 8.0 | 0.00 | 0.00 | 0.00 | 67 | 1016.8 |
| 20260831132310 | 83 | 148 | 3.0 | 8.0 | 0.00 | 0.00 | 0.00 | 67 | 1016.8 |
| 20260831132058 | 82 | 198 | 2.0 | 8.0 | 0.00 | 0.00 | 0.00 | 68 | 1016.7 |
| 20260831131310 | 82 | 195 | 2.0 | 6.0 | 0.00 | 0.00 | 0.00 | 68 | 1016.5 |
| 20260831130810 | 82 | 139 | 2.0 | 7.0 | 0.00 | 0.00 | 0.00 | 69 | 1016.6 |
| 20260831130309 | 81 | 142 | 2.0 | 7.0 | 0.00 | 0.00 | 0.00 | 69 | 1016.6 |
| 20260831125809 | 81 | 184 | 1.0 | 4.0 | 0.00 | 0.00 | 0.00 | 69 | 1016.5 |
| 20260831125310 | 81 | 214 | 1.0 | 4.0 | 0.00 | 0.00 | 0.00 | 70 | 1016.5 |
| 20260831124803 | 81 | 156 | 1.0 | 4.0 | 0.00 | 0.00 | 0.00 | 70 | 1016.4 |
| 20260831124303 | 81 | 155 | 2.0 | 5.0 | 0.00 | 0.00 | 0.00 | 70 | 1016.3 |
| 20260831123803 | 81 | 167 | 2.0 | 5.0 | 0.00 | 0.00 | 0.00 | 70 | 1016.0 |
| 20260831123303 | 81 | 160 | 2.0 | 5.0 | 0.00 | 0.00 | 0.00 | 70 | 1015.9 |
| 20260831122804 | 81 | 169 | 1.0 | 4.0 | 0.00 | 0.00 | 0.00 | 70 | 1015.8 |
| 20260831122305 | 81 | 177 | 1.0 | 4.0 | 0.00 | 0.00 | 0.00 | 70 | 1015.7 |
| 20260831122059 | 81 | 205 | 1.0 | 4.0 | 0.00 | 0.00 | 0.00 | 69 | 1015.7 |
| 20260831121303 | 81 | 164 | 1.0 | 4.0 | 0.00 | 0.00 | 0.00 | 69 | 1015.5 |
| 20260831120804 | 81 | 159 | 2.0 | 4.0 | 0.00 | 0.00 | 0.00 | 69 | 1015.5 |
| 20260831120304 | 81 | 211 | 2.0 | 7.0 | 0.00 | 0.00 | 0.00 | 69 | 1015.6 |
| 20260831115804 | 81 | 155 | 2.0 | 7.0 | 0.00 | 0.00 | 0.00 | 69 | 1015.4 |
| 20260831115600 | 81 | 136 | 2.0 | 6.0 | 0.00 | 0.00 | 0.00 | 69 | 1015.3 |
| 20260831114801 | 81 | 150 | 1.0 | 4.0 | 0.00 | 0.00 | 0.00 | 69 | 1015.4 |
| 20260831114301 | 81 | 173 | 1.0 | 4.0 | 0.00 | 0.00 | 0.00 | 69 | 1015.3 |
| 20260831113801 | 81 | 186 | 1.0 | 3.0 | 0.00 | 0.00 | 0.00 | 69 | 1015.3 |
| 20260831113301 | 81 | 151 | 1.0 | 4.0 | 0.00 | 0.00 | 0.00 | 69 | 1015.2 |
| 20260831112802 | 82 | 150 | 1.0 | 5.0 | 0.00 | 0.00 | 0.00 | 69 | 1015.1 |
| 20260831112555 | 82 | 176 | 1.0 | 5.0 | 0.00 | 0.00 | 0.00 | 69 | 1015.0 |
| 20260831112059 | 82 | 153 | 1.0 | 5.0 | 0.00 | 0.00 | 0.00 | 69 | 1015.1 |
| 20260831111337 | 82 | 163 | 1.0 | 4.0 | 0.00 | 0.00 | 0.00 | 68 | 1015.1 |
| 20260831110301 | 82 | 136 | 1.0 | 4.0 | 0.00 | 0.00 | 0.00 | 68 | 1015.0 |